WetterOnline ( http://www.wetteronline.de )

Wetter aktuell Sauerland (in 400m)

Aktuelles Wetter: Lüdenscheid (392m)

6-stündlich | Neueste Meldungen
Ortszeit Temperatur Wetter
Sa, 21.07. 20:00 19.3° C bedeckt
Sa, 21.07. 14:00 24.5° C bedeckt
Sa, 21.07. 8:00 17.3° C bewölkt
Sa, 21.07. 2:00 19.1° C bedeckt
Fr, 20.07. 20:00 25.7° C wolkig
Fr, 20.07. 14:00 26.2° C wolkig
Fr, 20.07. 8:00 15.4° C wolkig
Fr, 20.07. 2:00 16.7° C wolkig
Ortszeit Temperatur Wetter
Sa, 21.07. 21:30 18.3° C bedeckt
Sa, 21.07. 21:10 18.3° C bedeckt
Sa, 21.07. 21:00 18.9° C bedeckt
Sa, 21.07. 20:50 18.9° C bedeckt
Sa, 21.07. 20:40 18.8° C bedeckt
Sa, 21.07. 20:30 18.6° C bedeckt
Sa, 21.07. 20:00 19.3° C bedeckt
Sa, 21.07. 19:30 18.9° C bedeckt
Sa, 21.07. 19:00 19.2° C bedeckt
Sa, 21.07. 18:30 19.4° C bewölkt
Ortszeit Relative Feuchte Sichtweite
Sa, 21.07. 20:00 78% 50 km
Sa, 21.07. 14:00 46% 30 km
Sa, 21.07. 8:00 70% 40 km
Sa, 21.07. 2:00 57% 45 km
Fr, 20.07. 20:00 37% 40 km
Fr, 20.07. 14:00 32% 50 km
Fr, 20.07. 8:00 67% 45 km
Fr, 20.07. 2:00 59% 50 km
Ortszeit Relative Feuchte Sichtweite
Sa, 21.07. 21:30 87% 35 km
Sa, 21.07. 21:10 86% -
Sa, 21.07. 21:00 82% 40 km
Sa, 21.07. 20:50 82% -
Sa, 21.07. 20:40 86% -
Sa, 21.07. 20:30 86% 30 km
Sa, 21.07. 20:00 78% 50 km
Sa, 21.07. 19:30 84% 45 km
Sa, 21.07. 19:00 86% 50 km
Sa, 21.07. 18:30 81% 45 km
Ortszeit Niederschlagsmenge Niederschlagsart
Sa, 21.07. 20:00 2 l/m2 in 12 Std. Regen
Sa, 21.07. 14:00 0.0 l/m2 in 6 Std. -
Sa, 21.07. 8:00 0.1 l/m2 in 12 Std. Regen
Sa, 21.07. 2:00 0.1 l/m2 in 6 Std. Regen
Fr, 20.07. 20:00 0.0 l/m2 in 12 Std. -
Fr, 20.07. 14:00 0.0 l/m2 in 6 Std. -
Fr, 20.07. 8:00 0.0 l/m2 in 12 Std. -
Fr, 20.07. 2:00 0.0 l/m2 in 6 Std. -
Ortszeit Niederschlagsmenge Niederschlagsart
Sa, 21.07. 21:30 0.0 l/m2 in 1 Std. -
Sa, 21.07. 21:10 keine Meldung -
Sa, 21.07. 21:00 0.0 l/m2 in 1 Std. -
Sa, 21.07. 20:50 keine Meldung -
Sa, 21.07. 20:40 keine Meldung -
Sa, 21.07. 20:30 0.0 l/m2 in 1 Std. -
Sa, 21.07. 20:00 0.0 l/m2 in 1 Std. Regen
Sa, 21.07. 19:30 0.0 l/m2 in 1 Std. -
Sa, 21.07. 19:00 0.1 l/m2 in 1 Std. Regen
Sa, 21.07. 18:30 0.1 l/m2 in 1 Std. Schneeregen
Ortszeit Stärke Spitze Richtung
km/h Bft. km/h Grad Sektor
Sa, 21.07. 20:00 4 1 22 90° O
Sa, 21.07. 14:00 7 2 18 70° O
Sa, 21.07. 8:00 4 1 7 260° W
Sa, 21.07. 2:00 4 1 25 20° N
Fr, 20.07. 20:00 4 1 32 340° N
Fr, 20.07. 14:00 13 3 28 240° SW
Fr, 20.07. 8:00 4 1 11 100° O
Fr, 20.07. 2:00 4 1 11 70° O
Ortszeit Stärke Spitze Richtung
km/h Bft. km/h Grad Sektor
Sa, 21.07. 21:30 4 1 7 310° NW
Sa, 21.07. 21:10 4 1 - 290° W
Sa, 21.07. 21:00 0 0 7 - -
Sa, 21.07. 20:50 0 0 - 160° S
Sa, 21.07. 20:40 0 0 - 170° S
Sa, 21.07. 20:30 2 1 6 90° O
Sa, 21.07. 20:00 4 1 7 90° O
Sa, 21.07. 19:30 4 1 7 120° SO
Sa, 21.07. 19:00 4 1 14 100° O
Sa, 21.07. 18:30 7 2 14 270° W
Ortszeit Untergrenze Bedeckung Gattung
total tief tief mittel hoch
Sa, 21.07. 20:00 3300 m 8/8 8/8 - - -
Sa, 21.07. 14:00 3000 m 8/8 8/8 - - -
Sa, 21.07. 8:00 2100 m 7/8 6/8 - - -
Sa, 21.07. 2:00 3600 m 8/8 8/8 - - -
Fr, 20.07. 20:00 2700 m 7/8 1/8 - - -
Fr, 20.07. 14:00 2100 m 7/8 3/8 - - -
Fr, 20.07. 8:00 1800 m 8/8 2/8 - - -
Fr, 20.07. 2:00 9000 m 8/8 0/8 - - -
Ortszeit Bedeckungsgrad in Achtel und Wolkenuntergrenze
Sa, 21.07. 21:30 8(3600m)
Sa, 21.07. 21:10 8(3600m)
Sa, 21.07. 21:00 8(3300m)
Sa, 21.07. 20:50 8(3300m)
Sa, 21.07. 20:40 8(3300m)
Sa, 21.07. 20:30 8(3300m)
Sa, 21.07. 20:00 8(3300m)
Sa, 21.07. 19:30 8(3000m)
Sa, 21.07. 19:00 8(2700m)
Sa, 21.07. 18:30 7(2700m) 8(3900m) 8(4200m)
Ortszeit Luftdruck NN (hPa) Tendenz (hPa in 3 Std.)
Sa, 21.07. 20:00 1011 - 0,6
Sa, 21.07. 14:00 1011 + 0,2
Sa, 21.07. 8:00 1011 + 0,4
Sa, 21.07. 2:00 1011 - 1,0
Fr, 20.07. 20:00 1010 - 0,9
Fr, 20.07. 14:00 1012 - 0,8
Fr, 20.07. 8:00 1015 - 0,6
Fr, 20.07. 2:00 1016 - 0,4
Ortszeit Luftdruck NN (hPa) Tendenz (hPa in 3 Std.)
Sa, 21.07. 21:30 1012 - 0,2
Sa, 21.07. 21:10 1012 keine Meldung
Sa, 21.07. 21:00 1011 - 0,3
Sa, 21.07. 20:50 1011 keine Meldung
Sa, 21.07. 20:40 1011 keine Meldung
Sa, 21.07. 20:30 1011 - 0,5
Sa, 21.07. 20:00 1011 - 0,6
Sa, 21.07. 19:30 1011 - 0,4
Sa, 21.07. 19:00 1012 - 0,1
Sa, 21.07. 18:30 1012 - 0,2
Ortszeit Schneehöhe (cm)
Sa, 21.07. 20:00 -
Sa, 21.07. 14:00 -
Sa, 21.07. 8:00 -
Sa, 21.07. 2:00 -
Fr, 20.07. 20:00 -
Fr, 20.07. 14:00 -
Fr, 20.07. 8:00 -
Fr, 20.07. 2:00 -
Ortszeit Schneehöhe (cm)
Sa, 21.07. 21:30 -
Sa, 21.07. 21:10 -
Sa, 21.07. 21:00 -
Sa, 21.07. 20:50 -
Sa, 21.07. 20:40 -
Sa, 21.07. 20:30 -
Sa, 21.07. 20:00 -
Sa, 21.07. 19:30 -
Sa, 21.07. 19:00 -
Sa, 21.07. 18:30 -
Link zu dieser Seite / Seite empfehlen

Das Wetter in ...